TimePDT,TemperatureF,Dew PointF,Humidity,Sea Level PressureIn,VisibilityMPH,Wind Direction,Wind SpeedMPH,Gust SpeedMPH,PrecipitationIn,Events,Conditions,WindDirDegrees,DateUTC
12:53 AM,45.0,37.9,76,30.08,10.0,Calm,Calm,-,N/A,,Clear,0,2013-03-16 07:53:00
1:53 AM,39.9,35.1,83,30.08,10.0,Calm,Calm,-,N/A,,Clear,0,2013-03-16 08:53:00
2:53 AM,36.0,34.0,93,30.07,10.0,North,3.5,-,N/A,,Clear,350,2013-03-16 09:53:00
3:53 AM,37.0,34.0,89,30.06,10.0,Calm,Calm,-,N/A,,Clear,0,2013-03-16 10:53:00
4:53 AM,42.1,36.0,79,30.05,10.0,Calm,Calm,-,N/A,,Clear,0,2013-03-16 11:53:00
5:53 AM,46.0,39.9,79,30.05,10.0,SW,6.9,-,N/A,,Clear,220,2013-03-16 12:53:00
6:53 AM,48.0,41.0,77,30.03,10.0,SW,4.6,-,N/A,,Overcast,220,2013-03-16 13:53:00
7:53 AM,48.9,41.0,74,30.02,10.0,SSW,9.2,-,N/A,,Mostly Cloudy,210,2013-03-16 14:53:00
8:53 AM,51.1,41.0,68,30.02,10.0,WSW,15.0,-,N/A,,Scattered Clouds,240,2013-03-16 15:53:00
9:53 AM,54.0,41.0,62,30.02,10.0,SW,16.1,-,N/A,,Clear,220,2013-03-16 16:53:00
10:53 AM,54.0,39.9,59,30.01,10.0,WSW,17.3,21.9,N/A,,Clear,240,2013-03-16 17:53:00
11:53 AM,57.0,39.0,51,29.98,10.0,SW,17.3,23.0,N/A,,Clear,230,2013-03-16 18:53:00
12:53 PM,57.9,36.0,44,29.95,10.0,WSW,20.7,28.8,N/A,,Mostly Cloudy,250,2013-03-16 19:53:00
1:53 PM,57.0,36.0,45,29.92,10.0,WSW,24.2,35.7,N/A,,Overcast,240,2013-03-16 20:53:00
2:53 PM,57.0,36.0,45,29.90,10.0,WSW,21.9,33.4,N/A,,Mostly Cloudy,240,2013-03-16 21:53:00
3:53 PM,55.9,30.9,39,29.90,10.0,WSW,26.5,32.2,0.00,Rain,Light Rain,250,2013-03-16 22:53:00
4:53 PM,53.1,37.0,55,29.87,10.0,SW,15.0,-,0.00,,Mostly Cloudy,220,2013-03-16 23:53:00
5:53 PM,54.0,36.0,51,29.84,10.0,SW,20.7,29.9,N/A,,Clear,230,2013-03-17 00:53:00
6:53 PM,53.1,34.0,48,29.83,10.0,WSW,17.3,24.2,N/A,,Partly Cloudy,240,2013-03-17 01:53:00
7:53 PM,52.0,33.1,49,29.82,10.0,WSW,10.4,-,N/A,,Overcast,240,2013-03-17 02:53:00
8:53 PM,50.0,34.0,54,29.85,10.0,West,21.9,28.8,N/A,,Overcast,260,2013-03-17 03:53:00
9:53 PM,46.9,30.0,52,29.86,10.0,WSW,9.2,-,N/A,,Overcast,240,2013-03-17 04:53:00
10:53 PM,44.1,30.9,60,29.88,10.0,WSW,18.4,-,N/A,,Clear,240,2013-03-17 05:53:00
11:53 PM,41.0,30.9,67,29.92,10.0,WSW,20.7,28.8,N/A,,Clear,240,2013-03-17 06:53:00